owner,sensor,date,latitude,longitude,vertical_datum,direction_of_sea_water_velocity,sea_water_speed,upward_sea_water_velocity,qcFlag 
TABS,ioos:station:wmo:42043:1,2016-08-01T20:30:00Z,28.9818,-94.9186,2.0,226.8908346,2.999766658,-99999.0,'11133222,11111222,99999999' 
TABS,ioos:station:wmo:42043:1,2016-08-01T22:30:00Z,28.9818,-94.9186,2.0,131.0779614,2.998082721,-99999.0,'11133222,11111222,99999999' 
TABS,ioos:station:wmo:42043:1,2016-08-01T23:00:00Z,28.9818,-94.9186,2.0,131.0152532,6.003707188,-99999.0,'11133222,11111222,99999999' 
TABS,ioos:station:wmo:42043:1,2016-08-01T23:30:00Z,28.9818,-94.9186,2.0,322.977916,3.006010645,-99999.0,'11133222,11111222,99999999' 
TABS,ioos:station:wmo:42043:1,2016-08-02T00:00:00Z,28.9818,-94.9186,2.0,131.0779614,2.998082721,-99999.0,'11133222,11111222,99999999' 
TABS,ioos:station:wmo:42043:1,2016-08-02T00:30:00Z,28.9818,-94.9186,2.0,131.0779614,2.998082721,-99999.0,'11133222,11111222,99999999' 
TABS,ioos:station:wmo:42043:1,2016-08-02T01:00:00Z,28.9818,-94.9186,2.0,131.0779614,2.998082721,-99999.0,'11133222,11111222,99999999' 
TABS,ioos:station:wmo:42043:1,2016-08-02T01:30:00Z,28.9818,-94.9186,2.0,131.0779614,2.998082721,-99999.0,'11133222,11111222,99999999' 
TABS,ioos:station:wmo:42043:1,2016-08-02T02:00:00Z,28.9818,-94.9186,2.0,131.0779614,2.998082721,-99999.0,'11133222,11111222,99999999' 
TABS,ioos:station:wmo:42043:1,2016-08-02T02:30:00Z,28.9818,-94.9186,2.0,131.0779614,2.998082721,-99999.0,'11133222,11111222,99999999' 
TABS,ioos:station:wmo:42043:1,2016-08-02T03:00:00Z,28.9818,-94.9186,2.0,131.0779614,2.998082721,-99999.0,'11133222,11111222,99999999' 
TABS,ioos:station:wmo:42043:1,2016-08-02T03:30:00Z,28.9818,-94.9186,2.0,131.0779614,2.998082721,-99999.0,'11133222,11111222,99999999' 
TABS,ioos:station:wmo:42043:1,2016-08-02T04:00:00Z,28.9818,-94.9186,2.0,131.0779614,2.998082721,-99999.0,'11133222,11111222,99999999' 
TABS,ioos:station:wmo:42043:1,2016-08-02T04:30:00Z,28.9818,-94.9186,2.0,131.0779614,2.998082721,-99999.0,'11133222,11111222,99999999' 
TABS,ioos:station:wmo:42043:1,2016-08-02T05:00:00Z,28.9818,-94.9186,2.0,131.0779614,2.998082721,-99999.0,'11133222,11111222,99999999' 
TABS,ioos:station:wmo:42043:1,2016-08-03T00:00:00Z,28.9818,-94.9186,2.0,66.38710403,25.96389994,-99999.0,'11111222,11111222,99999999' 
TABS,ioos:station:wmo:42043:1,2016-08-03T00:30:00Z,28.9818,-94.9186,2.0,51.29997955,24.42245893,-99999.0,'11111222,11111222,99999999' 
TABS,ioos:station:wmo:42043:1,2016-08-03T01:00:00Z,28.9818,-94.9186,2.0,108.2272062,54.95758455,-99999.0,'11111222,11111222,99999999' 
TABS,ioos:station:wmo:42043:1,2016-08-03T01:30:00Z,28.9818,-94.9186,2.0,123.3533555,30.68377095,-99999.0,'11111222,11111222,99999999' 
TABS,ioos:station:wmo:42043:1,2016-08-03T02:00:00Z,28.9818,-94.9186,2.0,32.09602039,44.96198617,-99999.0,'11111222,11111222,99999999' 
TABS,ioos:station:wmo:42043:1,2016-08-03T02:30:00Z,28.9818,-94.9186,2.0,79.01777904,31.54775745,-99999.0,'11111222,11111222,99999999' 
TABS,ioos:station:wmo:42043:1,2016-08-03T03:00:00Z,28.9818,-94.9186,2.0,172.0782073,45.85759261,-99999.0,'11111222,11111222,99999999' 
TABS,ioos:station:wmo:42043:1,2016-08-03T03:30:00Z,28.9818,-94.9186,2.0,66.31688964,8.539162722,-99999.0,'11133222,11111222,99999999' 
TABS,ioos:station:wmo:42043:1,2016-08-03T04:00:00Z,28.9818,-94.9186,2.0,239.7615602,11.23920371,-99999.0,'11111222,11111222,99999999' 
TABS,ioos:station:wmo:42043:1,2016-08-03T04:30:00Z,28.9818,-94.9186,2.0,210.9129929,7.786038787,-99999.0,'11133222,11111222,99999999' 
TABS,ioos:station:wmo:42043:1,2016-08-03T05:00:00Z,28.9818,-94.9186,2.0,9.18736088,24.99057822,-99999.0,'11111222,11111222,99999999' 
TABS,ioos:station:wmo:42043:1,2016-08-03T05:30:00Z,28.9818,-94.9186,2.0,343.6960506,16.67040491,-99999.0,'11111222,11111222,99999999' 
TABS,ioos:station:wmo:42043:1,2016-08-03T06:00:00Z,28.9818,-94.9186,2.0,348.8426493,16.22670638,-99999.0,'11111222,11111222,99999999' 
TABS,ioos:station:wmo:42043:1,2016-08-03T06:30:00Z,28.9818,-94.9186,2.0,342.1183343,16.38136136,-99999.0,'11111222,11111222,99999999' 
TABS,ioos:station:wmo:42043:1,2016-08-03T07:00:00Z,28.9818,-94.9186,2.0,340.9447263,18.10193912,-99999.0,'11111222,11111222,99999999' 
TABS,ioos:station:wmo:42043:1,2016-08-03T07:30:00Z,28.9818,-94.9186,2.0,341.9817065,16.09958074,-99999.0,'11111222,11111222,99999999' 
TABS,ioos:station:wmo:42043:1,2016-08-03T08:00:00Z,28.9818,-94.9186,2.0,341.1692045,15.55245318,-99999.0,'11111222,11111222,99999999' 
TABS,ioos:station:wmo:42043:1,2016-08-03T08:30:00Z,28.9818,-94.9186,2.0,347.8554947,15.21042077,-99999.0,'11111222,11111222,99999999' 
TABS,ioos:station:wmo:42043:1,2016-08-03T09:00:00Z,28.9818,-94.9186,2.0,323.2615852,10.48202748,-99999.0,'11111222,11111222,99999999' 
TABS,ioos:station:wmo:42043:1,2016-08-03T09:30:00Z,28.9818,-94.9186,2.0,320.0601727,10.90365076,-99999.0,'11111222,11111222,99999999' 
TABS,ioos:station:wmo:42043:1,2016-08-03T10:00:00Z,28.9818,-94.9186,2.0,309.2335747,7.1781056,-99999.0,'11133222,11111222,99999999' 
TABS,ioos:station:wmo:42043:1,2016-08-03T10:30:00Z,28.9818,-94.9186,2.0,249.5477242,3.863534651,-99999.0,'11133222,11111222,99999999' 
TABS,ioos:station:wmo:42043:1,2016-08-03T11:00:00Z,28.9818,-94.9186,2.0,230.6914168,4.277873303,-99999.0,'11133222,11111222,99999999' 
TABS,ioos:station:wmo:42043:1,2016-08-03T11:30:00Z,28.9818,-94.9186,2.0,287.8861839,4.949191853,-99999.0,'11133222,11111222,99999999' 
TABS,ioos:station:wmo:42043:1,2016-08-03T12:00:00Z,28.9818,-94.9186,2.0,245.0597647,8.988136626,-99999.0,'11133222,11111222,99999999' 
TABS,ioos:station:wmo:42043:1,2016-08-03T12:30:00Z,28.9818,-94.9186,2.0,228.0440003,9.453216384,-99999.0,'11133222,11111222,99999999' 
TABS,ioos:station:wmo:42043:1,2016-08-03T13:00:00Z,28.9818,-94.9186,2.0,231.4948618,9.813995109,-99999.0,'11133222,11111222,99999999' 
TABS,ioos:station:wmo:42043:1,2016-08-03T13:30:00Z,28.9818,-94.9186,2.0,236.5413676,10.28422579,-99999.0,'11111222,11111222,99999999' 
TABS,ioos:station:wmo:42043:1,2016-08-03T14:00:00Z,28.9818,-94.9186,2.0,237.2447343,12.23554249,-99999.0,'11111222,11111222,99999999' 
TABS,ioos:station:wmo:42043:1,2016-08-03T14:30:00Z,28.9818,-94.9186,2.0,232.2711129,9.60907904,-99999.0,'11133222,11111222,99999999' 
TABS,ioos:station:wmo:42043:1,2016-08-03T15:00:00Z,28.9818,-94.9186,2.0,233.5688062,10.96232183,-99999.0,'11111222,11111222,99999999' 
TABS,ioos:station:wmo:42043:1,2016-08-03T15:30:00Z,28.9818,-94.9186,2.0,244.1300212,9.580020877,-99999.0,'11133222,11111222,99999999' 
TABS,ioos:station:wmo:42043:1,2016-08-03T16:00:00Z,28.9818,-94.9186,2.0,250.8771586,7.90626334,-99999.0,'11133222,11111222,99999999' 
TABS,ioos:station:wmo:42043:1,2016-08-03T16:30:00Z,28.9818,-94.9186,2.0,248.761866,6.984339625,-99999.0,'11133222,11111222,99999999' 
TABS,ioos:station:wmo:42043:1,2016-08-03T17:00:00Z,28.9818,-94.9186,2.0,257.7136917,9.210950005,-99999.0,'11133222,11111222,99999999' 
TABS,ioos:station:wmo:42043:1,2016-08-03T17:30:00Z,28.9818,-94.9186,2.0,248.5538219,9.873611295,-99999.0,'11133222,11111222,99999999' 
TABS,ioos:station:wmo:42043:1,2016-08-03T18:00:00Z,28.9818,-94.9186,2.0,244.4219117,10.12194645,-99999.0,'11111222,11111222,99999999' 
TABS,ioos:station:wmo:42043:1,2016-08-03T18:30:00Z,28.9818,-94.9186,2.0,246.8347501,11.15973566,-99999.0,'11111222,11111222,99999999' 
TABS,ioos:station:wmo:42043:1,2016-08-03T19:00:00Z,28.9818,-94.9186,2.0,251.0642874,10.13864883,-99999.0,'11111222,11111222,99999999' 
TABS,ioos:station:wmo:42043:1,2016-08-03T19:30:00Z,28.9818,-94.9186,2.0,247.3209313,12.7346221,-99999.0,'11111222,11111222,99999999' 
TABS,ioos:station:wmo:42043:1,2016-08-03T20:00:00Z,28.9818,-94.9186,2.0,240.7883551,11.72055033,-99999.0,'11111222,11111222,99999999' 
TABS,ioos:station:wmo:42043:1,2016-08-03T20:30:00Z,28.9818,-94.9186,2.0,248.5739243,16.42510578,-99999.0,'11111222,11111222,99999999' 
TABS,ioos:station:wmo:42043:1,2016-08-03T21:00:00Z,28.9818,-94.9186,2.0,232.2799564,16.18177988,-99999.0,'11111222,11111222,99999999' 
TABS,ioos:station:wmo:42043:1,2016-08-03T21:30:00Z,28.9818,-94.9186,2.0,229.9694134,15.0188415,-99999.0,'11111222,11111222,99999999' 
TABS,ioos:station:wmo:42043:1,2016-08-03T22:00:00Z,28.9818,-94.9186,2.0,223.9657488,17.24207064,-99999.0,'11111222,11111222,99999999' 
TABS,ioos:station:wmo:42043:1,2016-08-03T22:30:00Z,28.9818,-94.9186,2.0,237.9124158,21.51691892,-99999.0,'11111222,11111222,99999999' 
TABS,ioos:station:wmo:42043:1,2016-08-03T23:00:00Z,28.9818,-94.9186,2.0,232.3678748,22.10995477,-99999.0,'11111222,11111222,99999999' 
TABS,ioos:station:wmo:42043:1,2016-08-03T23:30:00Z,28.9818,-94.9186,2.0,232.5035473,19.76318041,-99999.0,'11111222,11111222,99999999' 
TABS,ioos:station:wmo:42043:1,2016-08-04T00:00:00Z,28.9818,-94.9186,2.0,235.2643661,14.44402299,-99999.0,'11111222,11111222,99999999' 
TABS,ioos:station:wmo:42043:1,2016-08-04T00:30:00Z,28.9818,-94.9186,2.0,226.9239131,14.3199162,-99999.0,'11111222,11111222,99999999' 
TABS,ioos:station:wmo:42043:1,2016-08-04T01:00:00Z,28.9818,-94.9186,2.0,245.5113464,9.625886972,-99999.0,'11133222,11111222,99999999' 
TABS,ioos:station:wmo:42043:1,2016-08-04T01:30:00Z,28.9818,-94.9186,2.0,309.6430302,8.558019631,-99999.0,'11133222,11111222,99999999' 
TABS,ioos:station:wmo:42043:1,2016-08-04T02:00:00Z,28.9818,-94.9186,2.0,307.6584421,7.414701612,-99999.0,'11133222,11111222,99999999' 
TABS,ioos:station:wmo:42043:1,2016-08-04T02:30:00Z,28.9818,-94.9186,2.0,325.8635133,9.60492582,-99999.0,'11133222,11111222,99999999' 
TABS,ioos:station:wmo:42043:1,2016-08-04T03:00:00Z,28.9818,-94.9186,2.0,316.7702294,10.76022769,-99999.0,'11111222,11111222,99999999' 
TABS,ioos:station:wmo:42043:1,2016-08-04T03:30:00Z,28.9818,-94.9186,2.0,330.5979505,16.80452618,-99999.0,'11111222,11111222,99999999' 
TABS,ioos:station:wmo:42043:1,2016-08-04T04:00:00Z,28.9818,-94.9186,2.0,350.7438,17.84233729,-99999.0,'11111222,11111222,99999999' 
TABS,ioos:station:wmo:42043:1,2016-08-04T04:30:00Z,28.9818,-94.9186,2.0,352.5580349,20.61364839,-99999.0,'11111222,11111222,99999999' 
TABS,ioos:station:wmo:42043:1,2016-08-04T05:00:00Z,28.9818,-94.9186,2.0,1.801543664,20.36006139,-99999.0,'11111222,11111222,99999999' 
TABS,ioos:station:wmo:42043:1,2016-08-04T05:30:00Z,28.9818,-94.9186,2.0,3.907017707,22.6025242,-99999.0,'11111222,11111222,99999999' 
TABS,ioos:station:wmo:42043:1,2016-08-04T06:00:00Z,28.9818,-94.9186,2.0,3.017236402,21.27949482,-99999.0,'11111222,11111222,99999999' 
TABS,ioos:station:wmo:42043:1,2016-08-04T06:30:00Z,28.9818,-94.9186,2.0,4.732943095,26.17926088,-99999.0,'11111222,11111222,99999999' 
TABS,ioos:station:wmo:42043:1,2016-08-04T07:00:00Z,28.9818,-94.9186,2.0,14.83960193,27.68331086,-99999.0,'11111222,11111222,99999999' 
TABS,ioos:station:wmo:42043:1,2016-08-04T07:30:00Z,28.9818,-94.9186,2.0,19.07229819,27.29846882,-99999.0,'11111222,11111222,99999999' 
TABS,ioos:station:wmo:42043:1,2016-08-04T08:00:00Z,28.9818,-94.9186,2.0,21.7590069,29.99723321,-99999.0,'11111222,11111222,99999999' 
TABS,ioos:station:wmo:42043:1,2016-08-04T08:30:00Z,28.9818,-94.9186,2.0,29.54963933,29.46214181,-99999.0,'11111222,11111222,99999999' 
TABS,ioos:station:wmo:42043:1,2016-08-04T09:00:00Z,28.9818,-94.9186,2.0,26.55662489,29.88281279,-99999.0,'11111222,11111222,99999999' 
TABS,ioos:station:wmo:42043:1,2016-08-04T09:30:00Z,28.9818,-94.9186,2.0,25.881615,29.98780586,-99999.0,'11111222,11111222,99999999' 
TABS,ioos:station:wmo:42043:1,2016-08-04T10:00:00Z,28.9818,-94.9186,2.0,24.49334321,26.96672023,-99999.0,'11111222,11111222,99999999' 
TABS,ioos:station:wmo:42043:1,2016-08-04T10:30:00Z,28.9818,-94.9186,2.0,26.3665527,27.08789028,-99999.0,'11111222,11111222,99999999' 
TABS,ioos:station:wmo:42043:1,2016-08-04T11:00:00Z,28.9818,-94.9186,2.0,33.02017917,25.14073189,-99999.0,'11111222,11111222,99999999' 
TABS,ioos:station:wmo:42043:1,2016-08-04T11:30:00Z,28.9818,-94.9186,2.0,37.75684844,22.0966468,-99999.0,'11111222,11111222,99999999' 
TABS,ioos:station:wmo:42043:1,2016-08-04T12:00:00Z,28.9818,-94.9186,2.0,33.25081132,19.16822892,-99999.0,'11111222,11111222,99999999' 
TABS,ioos:station:wmo:42043:1,2016-08-04T12:30:00Z,28.9818,-94.9186,2.0,36.57044865,16.44822483,-99999.0,'11111222,11111222,99999999' 
TABS,ioos:station:wmo:42043:1,2016-08-04T13:00:00Z,28.9818,-94.9186,2.0,55.32596382,15.5033835,-99999.0,'11111222,11111222,99999999' 
TABS,ioos:station:wmo:42043:1,2016-08-04T13:30:00Z,28.9818,-94.9186,2.0,44.54129105,14.12844648,-99999.0,'11111222,11111222,99999999' 
TABS,ioos:station:wmo:42043:1,2016-08-04T14:00:00Z,28.9818,-94.9186,2.0,46.58373519,10.49040037,-99999.0,'11111222,11111222,99999999' 
TABS,ioos:station:wmo:42043:1,2016-08-04T14:30:00Z,28.9818,-94.9186,2.0,38.95768746,17.12936952,-99999.0,'11111222,11111222,99999999' 
TABS,ioos:station:wmo:42043:1,2016-08-04T15:00:00Z,28.9818,-94.9186,2.0,48.87550236,13.18232908,-99999.0,'11111222,11111222,99999999' 
TABS,ioos:station:wmo:42043:1,2016-08-04T15:30:00Z,28.9818,-94.9186,2.0,63.13723742,14.62855427,-99999.0,'11111222,11111222,99999999' 
TABS,ioos:station:wmo:42043:1,2016-08-04T16:00:00Z,28.9818,-94.9186,2.0,61.39524963,16.20834662,-99999.0,'11111222,11111222,99999999' 
TABS,ioos:station:wmo:42043:1,2016-08-04T16:30:00Z,28.9818,-94.9186,2.0,56.15537979,17.4703463,-99999.0,'11111222,11111222,99999999' 
TABS,ioos:station:wmo:42043:1,2016-08-04T17:00:00Z,28.9818,-94.9186,2.0,60.18867463,18.16365877,-99999.0,'11111222,11111222,99999999' 
TABS,ioos:station:wmo:42043:1,2016-08-04T17:30:00Z,28.9818,-94.9186,2.0,55.51612702,20.41770065,-99999.0,'11111222,11111222,99999999' 
TABS,ioos:station:wmo:42043:1,2016-08-04T18:00:00Z,28.9818,-94.9186,2.0,53.61154244,17.37861329,-99999.0,'11111222,11111222,99999999' 
TABS,ioos:station:wmo:42043:1,2016-08-04T18:30:00Z,28.9818,-94.9186,2.0,58.72460378,16.39207735,-99999.0,'11111222,11111222,99999999' 
TABS,ioos:station:wmo:42043:1,2016-08-04T19:00:00Z,28.9818,-94.9186,2.0,51.04187003,12.29416528,-99999.0,'11111222,11111222,99999999' 
TABS,ioos:station:wmo:42043:1,2016-08-04T19:30:00Z,28.9818,-94.9186,2.0,59.05302014,11.76480344,-99999.0,'11111222,11111222,99999999' 
TABS,ioos:station:wmo:42043:1,2016-08-04T20:00:00Z,28.9818,-94.9186,2.0,46.59789581,10.14385528,-99999.0,'11111222,11111222,99999999' 
TABS,ioos:station:wmo:42043:1,2016-08-04T20:30:00Z,28.9818,-94.9186,2.0,66.79388194,9.922827218,-99999.0,'11133222,11111222,99999999' 
TABS,ioos:station:wmo:42043:1,2016-08-04T21:00:00Z,28.9818,-94.9186,2.0,55.5151726,4.998329721,-99999.0,'11133222,11111222,99999999' 
TABS,ioos:station:wmo:42043:1,2016-08-04T21:30:00Z,28.9818,-94.9186,2.0,68.37957451,5.292343526,-99999.0,'11133222,11111222,99999999' 
TABS,ioos:station:wmo:42043:1,2016-08-04T22:00:00Z,28.9818,-94.9186,2.0,60.7070218,7.235171042,-99999.0,'11133222,11111222,99999999' 
TABS,ioos:station:wmo:42043:1,2016-08-04T22:30:00Z,28.9818,-94.9186,2.0,15.40601449,2.333859464,-99999.0,'11133222,11111222,99999999' 
TABS,ioos:station:wmo:42043:1,2016-08-04T23:00:00Z,28.9818,-94.9186,2.0,334.9724475,3.167412193,-99999.0,'11133222,11111222,99999999' 
TABS,ioos:station:wmo:42043:1,2016-08-04T23:30:00Z,28.9818,-94.9186,2.0,348.5947321,4.702871463,-99999.0,'11133222,11111222,99999999' 
TABS,ioos:station:wmo:42043:1,2016-08-05T00:00:00Z,28.9818,-94.9186,2.0,326.351952,3.808017857,-99999.0,'11133222,11111222,99999999' 
TABS,ioos:station:wmo:42043:1,2016-08-05T00:30:00Z,28.9818,-94.9186,2.0,345.8723269,3.031699194,-99999.0,'11133222,11111222,99999999' 
TABS,ioos:station:wmo:42043:1,2016-08-05T01:00:00Z,28.9818,-94.9186,2.0,353.7319949,4.39628252,-99999.0,'11133222,11111222,99999999' 
TABS,ioos:station:wmo:42043:1,2016-08-05T01:30:00Z,28.9818,-94.9186,2.0,314.8054333,4.157811925,-99999.0,'11133222,11111222,99999999' 
TABS,ioos:station:wmo:42043:1,2016-08-05T02:00:00Z,28.9818,-94.9186,2.0,343.6826653,7.189603605,-99999.0,'11133222,11111222,99999999' 
TABS,ioos:station:wmo:42043:1,2016-08-05T02:30:00Z,28.9818,-94.9186,2.0,326.3682524,8.21511412,-99999.0,'11133222,11111222,99999999' 
TABS,ioos:station:wmo:42043:1,2016-08-05T03:00:00Z,28.9818,-94.9186,2.0,0.983127549,12.24180134,-99999.0,'11111222,11111222,99999999' 
TABS,ioos:station:wmo:42043:1,2016-08-05T03:30:00Z,28.9818,-94.9186,2.0,7.089810905,18.06814324,-99999.0,'11111222,11111222,99999999' 
TABS,ioos:station:wmo:42043:1,2016-08-05T04:00:00Z,28.9818,-94.9186,2.0,1.517184449,17.37608989,-99999.0,'11111222,11111222,99999999' 
TABS,ioos:station:wmo:42043:1,2016-08-05T04:30:00Z,28.9818,-94.9186,2.0,356.9802185,16.7031973,-99999.0,'11111222,11111222,99999999' 
TABS,ioos:station:wmo:42043:1,2016-08-05T05:00:00Z,28.9818,-94.9186,2.0,9.075322852,20.92189284,-99999.0,'11111222,11111222,99999999' 
TABS,ioos:station:wmo:42043:1,2016-08-05T05:30:00Z,28.9818,-94.9186,2.0,10.75932647,19.17712179,-99999.0,'11111222,11111222,99999999' 
TABS,ioos:station:wmo:42043:1,2016-08-05T06:00:00Z,28.9818,-94.9186,2.0,10.49990662,20.2490543,-99999.0,'11111222,11111222,99999999' 
TABS,ioos:station:wmo:42043:1,2016-08-05T06:30:00Z,28.9818,-94.9186,2.0,9.575041501,21.76317991,-99999.0,'11111222,11111222,99999999' 
TABS,ioos:station:wmo:42043:1,2016-08-05T07:00:00Z,28.9818,-94.9186,2.0,18.46791276,22.09799991,-99999.0,'11111222,11111222,99999999' 
TABS,ioos:station:wmo:42043:1,2016-08-05T07:30:00Z,28.9818,-94.9186,2.0,22.79161208,25.6854998,-99999.0,'11111222,11111222,99999999' 
TABS,ioos:station:wmo:42043:1,2016-08-05T08:00:00Z,28.9818,-94.9186,2.0,20.76775459,23.77473028,-99999.0,'11111222,11111222,99999999' 
TABS,ioos:station:wmo:42043:1,2016-08-05T08:30:00Z,28.9818,-94.9186,2.0,21.55393678,21.91225456,-99999.0,'11111222,11111222,99999999' 
TABS,ioos:station:wmo:42043:1,2016-08-05T09:00:00Z,28.9818,-94.9186,2.0,23.16725984,21.50405776,-99999.0,'11111222,11111222,99999999' 
TABS,ioos:station:wmo:42043:1,2016-08-05T09:30:00Z,28.9818,-94.9186,2.0,20.75015546,20.7456622,-99999.0,'11111222,11111222,99999999' 
TABS,ioos:station:wmo:42043:1,2016-08-05T10:00:00Z,28.9818,-94.9186,2.0,23.50095947,20.41318202,-99999.0,'11111222,11111222,99999999' 
TABS,ioos:station:wmo:42043:1,2016-08-05T10:30:00Z,28.9818,-94.9186,2.0,15.86901615,18.50523169,-99999.0,'11111222,11111222,99999999' 
TABS,ioos:station:wmo:42043:1,2016-08-05T11:00:00Z,28.9818,-94.9186,2.0,18.64384256,17.36101956,-99999.0,'11111222,11111222,99999999' 
TABS,ioos:station:wmo:42043:1,2016-08-05T11:30:00Z,28.9818,-94.9186,2.0,25.10678527,15.81412343,-99999.0,'11111222,11111222,99999999' 
TABS,ioos:station:wmo:42043:1,2016-08-05T12:00:00Z,28.9818,-94.9186,2.0,17.68203175,15.63881389,-99999.0,'11111222,11111222,99999999' 
TABS,ioos:station:wmo:42043:1,2016-08-05T12:30:00Z,28.9818,-94.9186,2.0,14.49508225,18.17862756,-99999.0,'11111222,11111222,99999999' 
TABS,ioos:station:wmo:42043:1,2016-08-05T13:00:00Z,28.9818,-94.9186,2.0,11.3537347,18.03288385,-99999.0,'11111222,11111222,99999999' 
TABS,ioos:station:wmo:42043:1,2016-08-05T13:30:00Z,28.9818,-94.9186,2.0,18.95743227,18.0383813,-99999.0,'11111222,11111222,99999999' 
TABS,ioos:station:wmo:42043:1,2016-08-05T14:00:00Z,28.9818,-94.9186,2.0,22.32416601,12.21554747,-99999.0,'11111222,11111222,99999999' 
TABS,ioos:station:wmo:42043:1,2016-08-05T14:30:00Z,28.9818,-94.9186,2.0,14.47328374,12.72378874,-99999.0,'11111222,11111222,99999999' 
TABS,ioos:station:wmo:42043:1,2016-08-05T15:00:00Z,28.9818,-94.9186,2.0,19.70739944,10.82398263,-99999.0,'11111222,11111222,99999999' 
TABS,ioos:station:wmo:42043:1,2016-08-05T15:30:00Z,28.9818,-94.9186,2.0,19.7149327,9.486037107,-99999.0,'11133222,11111222,99999999' 
TABS,ioos:station:wmo:42043:1,2016-08-05T16:00:00Z,28.9818,-94.9186,2.0,35.6601009,10.89242856,-99999.0,'11111222,11111222,99999999' 
TABS,ioos:station:wmo:42043:1,2016-08-05T16:30:00Z,28.9818,-94.9186,2.0,34.92964776,10.51402872,-99999.0,'11111222,11111222,99999999' 
TABS,ioos:station:wmo:42043:1,2016-08-05T17:00:00Z,28.9818,-94.9186,2.0,35.10083472,10.36494091,-99999.0,'11111222,11111222,99999999' 
TABS,ioos:station:wmo:42043:1,2016-08-05T17:30:00Z,28.9818,-94.9186,2.0,20.86641381,10.80890836,-99999.0,'11111222,11111222,99999999' 
TABS,ioos:station:wmo:42043:1,2016-08-05T18:00:00Z,28.9818,-94.9186,2.0,24.34636739,14.55429833,-99999.0,'11111222,11111222,99999999' 
TABS,ioos:station:wmo:42043:1,2016-08-05T18:30:00Z,28.9818,-94.9186,2.0,33.18945733,13.64614598,-99999.0,'11111222,11111222,99999999' 
TABS,ioos:station:wmo:42043:1,2016-08-05T19:00:00Z,28.9818,-94.9186,2.0,29.52217597,8.929328082,-99999.0,'11133222,11111222,99999999' 
TABS,ioos:station:wmo:42043:1,2016-08-05T19:30:00Z,28.9818,-94.9186,2.0,19.32719081,7.31207221,-99999.0,'11133222,11111222,99999999' 
TABS,ioos:station:wmo:42043:1,2016-08-05T20:00:00Z,28.9818,-94.9186,2.0,11.57747098,9.66666954,-99999.0,'11133222,11111222,99999999' 
TABS,ioos:station:wmo:42043:1,2016-08-05T20:30:00Z,28.9818,-94.9186,2.0,4.381541457,7.592186773,-99999.0,'11133222,11111222,99999999' 
TABS,ioos:station:wmo:42043:1,2016-08-05T21:00:00Z,28.9818,-94.9186,2.0,355.9705765,11.66884742,-99999.0,'11111222,11111222,99999999' 
TABS,ioos:station:wmo:42043:1,2016-08-05T21:30:00Z,28.9818,-94.9186,2.0,358.3756644,9.523828012,-99999.0,'11133222,11111222,99999999' 
TABS,ioos:station:wmo:42043:1,2016-08-05T22:00:00Z,28.9818,-94.9186,2.0,7.658323373,11.3310635,-99999.0,'11111222,11111222,99999999' 
TABS,ioos:station:wmo:42043:1,2016-08-05T22:30:00Z,28.9818,-94.9186,2.0,10.29450635,9.736734566,-99999.0,'11133222,11111222,99999999' 
TABS,ioos:station:wmo:42043:1,2016-08-05T23:00:00Z,28.9818,-94.9186,2.0,9.87192065,8.282632432,-99999.0,'11133222,11111222,99999999' 
TABS,ioos:station:wmo:42043:1,2016-08-05T23:30:00Z,28.9818,-94.9186,2.0,7.705889374,4.773101717,-99999.0,'11133222,11111222,99999999' 
TABS,ioos:station:wmo:42043:1,2016-08-06T00:00:00Z,28.9818,-94.9186,2.0,11.91320627,4.8443369,-99999.0,'11133222,11111222,99999999' 
TABS,ioos:station:wmo:42043:1,2016-08-06T00:30:00Z,28.9818,-94.9186,2.0,316.9115172,6.572678297,-99999.0,'11133222,11111222,99999999' 
TABS,ioos:station:wmo:42043:1,2016-08-06T01:00:00Z,28.9818,-94.9186,2.0,354.3467454,5.989131824,-99999.0,'11133222,11111222,99999999' 
TABS,ioos:station:wmo:42043:1,2016-08-06T01:30:00Z,28.9818,-94.9186,2.0,333.7835189,7.356799576,-99999.0,'11133222,11111222,99999999' 
TABS,ioos:station:wmo:42043:1,2016-08-06T02:00:00Z,28.9818,-94.9186,2.0,319.7337429,10.0256122,-99999.0,'11111222,11111222,99999999' 
TABS,ioos:station:wmo:42043:1,2016-08-06T02:30:00Z,28.9818,-94.9186,2.0,332.0718765,10.52591564,-99999.0,'11111222,11111222,99999999' 
TABS,ioos:station:wmo:42043:1,2016-08-06T03:00:00Z,28.9818,-94.9186,2.0,330.6873125,11.84689411,-99999.0,'11111222,11111222,99999999' 
TABS,ioos:station:wmo:42043:1,2016-08-06T03:30:00Z,28.9818,-94.9186,2.0,340.4079744,10.64639845,-99999.0,'11111222,11111222,99999999' 
TABS,ioos:station:wmo:42043:1,2016-08-06T04:00:00Z,28.9818,-94.9186,2.0,345.6242853,13.08987777,-99999.0,'11111222,11111222,99999999' 
TABS,ioos:station:wmo:42043:1,2016-08-06T04:30:00Z,28.9818,-94.9186,2.0,6.061522111,10.8908861,-99999.0,'11111222,11111222,99999999' 
TABS,ioos:station:wmo:42043:1,2016-08-06T05:00:00Z,28.9818,-94.9186,2.0,22.03024871,14.42307179,-99999.0,'11111222,11111222,99999999' 
TABS,ioos:station:wmo:42043:1,2016-08-06T05:30:00Z,28.9818,-94.9186,2.0,19.78512552,17.04624592,-99999.0,'11111222,11111222,99999999' 
TABS,ioos:station:wmo:42043:1,2016-08-06T06:00:00Z,28.9818,-94.9186,2.0,18.99945466,13.48460604,-99999.0,'11111222,11111222,99999999' 
TABS,ioos:station:wmo:42043:1,2016-08-06T06:30:00Z,28.9818,-94.9186,2.0,25.75516081,17.39834762,-99999.0,'11111222,11111222,99999999' 
TABS,ioos:station:wmo:42043:1,2016-08-06T07:00:00Z,28.9818,-94.9186,2.0,22.54486642,18.17924641,-99999.0,'11111222,11111222,99999999' 
TABS,ioos:station:wmo:42043:1,2016-08-06T07:30:00Z,28.9818,-94.9186,2.0,19.56923175,17.73436494,-99999.0,'11111222,11111222,99999999' 
TABS,ioos:station:wmo:42043:1,2016-08-06T08:00:00Z,28.9818,-94.9186,2.0,30.22601485,20.24194161,-99999.0,'11111222,11111222,99999999' 
TABS,ioos:station:wmo:42043:1,2016-08-06T08:30:00Z,28.9818,-94.9186,2.0,27.35339599,20.80634519,-99999.0,'11111222,11111222,99999999' 